FW6146 Weather Reports


Display with metric or nautical units.
time (UTC)temp
F
wind
direction
speed
MPH
gust
MPH
rain 1hr
in
rain 24hr
in
rain mn
in
humidity
%
barometer
mb
20260504224955 65 280 3.0 7.0 0.00 0.00 0.00 45 1007.1
20260504224013 66 296 5.0 10.0 0.00 0.00 0.00 44 1006.9
20260504222959 66 268 6.0 10.0 0.00 0.00 0.00 43 1006.9
20260504222018 67 295 3.0 7.0 0.00 0.00 0.00 42 1006.9
20260504221004 67 243 4.0 6.0 0.00 0.00 0.00 42 1006.8
20260504220023 68 299 3.0 9.0 0.00 0.00 0.00 40 1006.7
20260504215008 68 251 4.0 8.0 0.00 0.00 0.00 39 1006.9
20260504213953 68 274 4.0 5.0 0.00 0.00 0.00 39 1006.8
20260504213011 69 281 4.0 8.0 0.00 0.00 0.00 37 1006.5
20260504212016 69 293 3.0 6.0 0.00 0.00 0.00 36 1006.6
20260504211030 70 262 4.0 6.0 0.00 0.00 0.00 33 1006.6
20260504205955 70 269 4.0 7.0 0.00 0.00 0.00 33 1006.4
20260504205013 70 263 2.0 6.0 0.00 0.00 0.00 33 1006.4
20260504203959 71 269 3.0 9.0 0.00 0.00 0.00 32 1006.6
20260504203017 70 295 3.0 7.0 0.00 0.00 0.00 33 1006.5
20260504202023 70 309 2.0 3.0 0.00 0.00 0.00 33 1006.4
20260504201022 71 289 4.0 6.0 0.00 0.00 0.00 31 1006.6
20260504200007 71 282 6.0 14.0 0.00 0.00 0.00 31 1006.4
20260504195026 70 249 4.0 9.0 0.00 0.00 0.00 31 1006.5
20260504194011 70 276 5.0 9.0 0.00 0.00 0.00 31 1006.5
20260504192956 70 284 4.0 7.0 0.00 0.00 0.00 32 1006.6
20260504192015 71 265 4.0 7.0 0.00 0.00 0.00 32 1006.6
20260504191000 71 281 4.0 8.0 0.00 0.00 0.00 31 1006.6
20260504190019 70 271 4.0 6.0 0.00 0.00 0.00 32 1006.8
20260504185024 71 278 5.0 7.0 0.00 0.00 0.00 32 1006.7
20260504184022 70 272 4.0 7.0 0.00 0.00 0.00 31 1007.0
20260504183027 71 265 5.0 8.0 0.00 0.00 0.00 31 1007.3
20260504182026 70 292 2.0 7.0 0.00 0.00 0.00 32 1007.0
20260504181032 70 264 4.0 7.0 0.00 0.00 0.00 31 1007.1
20260504180030 70 281 6.0 10.0 0.00 0.00 0.00 30 1007.4
20260504175016 70 286 6.0 10.0 0.00 0.00 0.00 30 1007.3
20260504174002 69 282 4.0 8.0 0.00 0.00 0.00 32 1007.4
20260504173020 70 239 4.0 9.0 0.00 0.00 0.00 31 1007.4
20260504171932 69 279 4.0 9.0 0.00 0.00 0.00 31 1007.3
20260504170918 69 256 7.0 11.0 0.00 0.00 0.00 31 1007.7
20260504150951 65 291 4.0 6.0 0.00 0.00 0.00 37 1008.8
20260504141001 63 247 2.0 7.0 0.00 0.00 0.00 41 1009.2
20260504081927 46 0.0 0.0 0.00 0.00 0.00 57 1010.1
20260504081125 46 0.0 0.0 0.00 0.00 0.00 56 1010.1
20260504050003 41 0.0 1.0 0.00 0.00 0.00 63 1009.8
20260504044948 41 0.0 0.0 0.00 0.00 0.00 63 1009.8
20260504043953 41 0.0 1.0 0.00 0.00 0.00 66 1009.8
20260504042952 41 319 0.0 1.0 0.00 0.00 0.00 66 1009.6
20260504041937 41 0.0 1.0 0.00 0.00 0.00 65 1009.7
20260504040955 39 0.0 0.0 0.00 0.00 0.00 71 1009.6
20260504035939 39 0.0 0.0 0.00 0.00 0.00 74 1009.5
20260504034955 39 0.0 0.0 0.00 0.00 0.00 72 1009.5
20260504033940 39 0.0 0.0 0.00 0.00 0.00 72 1009.2
20260504032958 40 0.0 0.0 0.00 0.00 0.00 70 1009.4
20260504031942 40 0.0 0.0 0.00 0.00 0.00 68 1009.4
20260504031000 40 0.0 0.0 0.00 0.00 0.00 69 1009.4
20260504025943 41 0.0 0.0 0.00 0.00 0.00 68 1009.3
20260504025001 41 0.0 0.0 0.00 0.00 0.00 68 1009.1
20260504023947 41 0.0 0.0 0.00 0.00 0.00 68 1009.4
20260504023005 41 0.0 0.0 0.00 0.00 0.00 70 1009.2
20260504021948 41 0.0 0.0 0.00 0.00 0.00 68 1009.1
20260504021026 41 0.0 0.0 0.00 0.00 0.00 66 1009.1
20260504015951 42 0.0 0.0 0.00 0.00 0.00 67 1009.0
20260504015009 42 0.0 0.0 0.00 0.00 0.00 65 1009.1
20260504013955 42 0.0 0.0 0.00 0.00 0.00 64 1008.8
20260504012941 43 0.0 0.0 0.00 0.00 0.00 61 1009.0
20260504012020 44 0.0 0.0 0.00 0.00 0.00 58 1008.8
20260504010946 44 0.0 0.0 0.00 0.00 0.00 57 1008.7
20260504010006 44 0.0 0.0 0.00 0.00 0.00 55 1008.6
20260504004951 45 0.0 0.0 0.00 0.00 0.00 55 1008.5
20260504004010 45 0.0 0.0 0.00 0.00 0.00 56 1008.4
20260504002955 47 0.0 0.0 0.00 0.00 0.00 52 1008.1
20260504002014 48 0.0 0.0 0.00 0.00 0.00 48 1008.2
20260504001000 48 0.0 0.0 0.00 0.00 0.00 46 1008.0
20260503235946 50 0.0 0.0 0.00 0.00 0.00 45 1007.9
20260503235045 50 338 0.0 1.0 0.00 0.00 0.00 43 1007.8
20260503233950 50 316 0.0 2.0 0.00 0.00 0.00 43 1007.6
20260503233008 51 323 1.0 2.0 0.00 0.00 0.00 41 1007.4
20260503231954 52 301 2.0 3.0 0.00 0.00 0.00 40 1007.3
20260503231013 52 317 2.0 5.0 0.00 0.00 0.00 39 1007.1
20260503225959 52 331 1.0 2.0 0.00 0.00 0.00 41 1007.2